Location: ??
(35.5138°N, 139.6953°E)
Time: 14:34:31
(UTC+00:00)

Cosmos 2279 Rocket - Pass Details

Date: 07 June 2020
Orbit: 963 x 980 km, 82.9° (Epoch: 12 July)

Event Time Altitude Azimuth Distance (km) Brightness Sun altitude
Rises 10:49:29 0° 354° (N) 3,670 7.7 -10.1°
Reaches altitude 10° 10:52:01 10° 355° (N) 2,717 7.0 -10.5°
Maximum altitude 10:58:15 85° 85° (E) 975 4.0 -11.5°
Drops below altitude 10° 11:04:25 10° 173° (S) 2,692 5.9 -12.5°
Enters shadow 11:05:23 - 174° (S) 3,055 6.2 -12.6°
